Location: Flat Point
(41.2500°S, 175.9667°E)
Time: 04:25:04
(UTC+00:00)

Daily predictions for brighter satellites

Satellite Brightness Start Highest point End
(mag) Time Altitude Azimuth Time Altitude Azimuth Time Altitude Azimuth
SL-08 R/B 3.5 06:26:11 10° NNE 06:31:04 84° WNW 06:35:55 10° SSW
Meteor 1-31 Rocket 3.9 06:30:17 10° SE 06:33:15 21° E 06:36:10 10° NE
Cosmos 1812 Rocket 3.8 06:32:00 10° NNW 06:36:21 77° W 06:40:49 10° S
NOSS 3-3 (A) 4.2 06:31:01 10° SW 06:37:12 68° WNW 06:42:28 10° NNE
Cosmos 2227 Rocket 2.3 06:34:30 10° N 06:40:00 54° ENE 06:45:35 10° SSE
Cosmos 2263 Rocket 3.3 06:37:11 10° NNE 06:41:21 22° E 06:45:33 10° SE
Milstar 3 Cent rocket 4.1 06:36:49 10° NW 06:42:09 29° NNE 06:50:45 11° ENE
AQUARIUS 4.1 06:39:29 10° SSE 06:44:00 66° E 06:48:27 10° N
Helios 1A 3.1 06:40:32 10° N 06:44:36 76° WNW 06:48:44 10° SSW
CZ-2C R/B 3.6 06:44:01 10° SE 06:47:13 26° E 06:50:22 10° NNE
Cosmos 2297 Rocket 2.7 06:42:47 10° NNW 06:48:25 66° WSW 06:54:07 10° SSE
Cosmos 2237 Rocket 2.2 06:42:42 10° SSW 06:48:29 82° ESE 06:54:11 10° NNE
Cosmos 1536 4.3 06:48:08 10° SSE 06:50:52 18° ESE 06:52:04 16° E
ATLAS CENTAUR R/B 2.5 06:48:58 10° SW 06:52:18 37° WNW 06:55:31 10° N
Meteor 2-14 Rocket 4.4 06:47:23 10° N 06:53:23 62° E 06:59:26 10° SSE
Cosmos 724 4.5 06:49:32 10° SSW 06:55:36 57° SE 07:01:29 10° NE
Okean 1 4.3 06:54:42 10° NE 06:57:44 22° E 07:00:46 10° SE
Lacrosse 5 rocket 2.6 06:55:56 10° WNW 06:59:59 41° SW 07:04:06 10° SSE
ADEOS Rocket 3.2 06:55:03 10° SSE 07:01:54 88° WSW 07:07:58 10° NNW
ATLAS 5 CENTAUR R/B 4.2 06:56:14 10° WNW 07:03:05 37° SW 07:09:34 10° SSE
USA 238 DEB 4.3 06:55:27 10° NW 07:03:25 72° SW 07:10:53 10° SSE
USA 238 4.3 06:55:33 10° NW 07:03:31 73° SW 07:10:59 10° SSE
Okean 3 Rocket 4.3 07:04:48 10° S 07:09:00 34° ESE 07:12:07 16° NE
Cosmos 1743 3.3 07:06:57 10° SSW 07:10:37 57° W 07:14:11 10° N
Helios 1B rocket 3.1 07:09:09 10° SE 07:12:39 29° E 07:16:05 10° NNE
Cosmos 1726 2.7 07:12:03 10° SSW 07:14:49 43° W 07:17:33 10° NNW
SMAP 4.4 07:10:46 10° S 07:15:14 43° WSW 07:19:39 10° NW
Gblst 52 Del rocket 4.3 07:10:15 10° NNW 07:15:34 51° NE 07:19:20 20° ESE
Cosmos 1980 4.5 07:11:29 10° SSW 07:17:02 55° WNW 07:22:32 10° N
IGS 5A 3.5 07:14:37 10° S 07:18:46 81° WSW 07:22:52 10° NNW
Cosmos 1607 4.0 07:13:56 10° SW 07:20:14 81° WNW 07:26:35 10° NNE
Cosmos 2219 3.2 07:15:57 10° N 07:21:34 61° ENE 07:27:12 10° SSE
USA 234 4.4 07:22:09 20° ENE 07:22:09 20° ENE 07:26:32 10° NNE
Meteor 1-10 Rocket 4.2 07:17:46 10° N 07:23:13 58° E 07:28:49 10° SSE
CZ-4 R/B 4.3 07:20:11 10° SSE 07:24:21 87° ENE 07:28:28 10° NNW
Meteor 2-16 Rocket 4.5 07:19:30 10° N 07:25:30 57° E 07:31:35 10° SSE
USA 81 4.5 07:20:18 10° NNW 07:25:34 67° W 07:30:55 10° S
ARIANE 6 FM1 Upper Stage 3.3 07:21:44 10° SSW 07:25:45 38° SE 07:26:40 34° ESE
Iridium 4 Rocket 4.4 07:29:00 26° ESE 07:29:00 26° ESE 07:32:17 10° SSE
NOAA 6 4.0 07:23:40 10° SSE 07:28:49 59° E 07:33:52 10° N
Cosmos 1513 Rocket 4.4 07:23:19 10° S 07:29:40 71° E 07:35:49 10° NNE
DELTA 2 R/B (1) 3.9 07:26:53 10° W 07:32:25 59° NNW 07:35:05 30° NE
Cosmos 1464 Rocket 4.0 07:26:26 10° S 07:32:31 56° E 07:38:28 11° NNE
Meteor 2-10 4.0 07:31:02 10° S 07:36:06 58° ESE 07:39:04 25° NNE
Atlas Centaur 2 3.1 07:33:44 10° NW 07:36:43 18° N 07:37:25 17° N
CZ-4B R/B 4.3 07:32:39 10° S 07:36:52 67° WSW 07:41:05 10° NNW
Cosmos 2082 3.7 07:31:28 10° N 07:37:00 55° ENE 07:42:34 10° SSE
Cosmos 332 Rocket 3.9 07:32:55 10° N 07:37:38 51° ENE 07:42:26 10° SSE
Gbstr 26 Del rocket 4.2 07:32:42 10° SW 07:39:15 86° SE 07:43:19 30° NE
Meteor 2-21 Rocket 4.4 07:35:37 10° N 07:41:42 89° E 07:47:51 10° S
SL-16 R/B 2.1 07:38:57 10° SSW 07:44:43 70° ESE 07:47:15 34° NE
Cosmos 1842 Rocket 3.6 07:41:24 10° NNW 07:45:44 77° W 07:50:11 10° S
SL-8 R/B 4.4 07:42:04 10° WSW 07:46:41 42° SSE 07:47:46 36° SE
Lacrosse 5 3.9 07:46:11 10° SSW 07:49:23 16° SSE 07:50:43 15° SSE
Meteor 1-11 Rocket 3.7 07:44:30 10° S 07:50:34 76° E 07:54:42 21° NNE
Cosmos 2034 Rocket 4.1 07:44:32 10° S 07:50:51 53° ESE 07:53:00 38° NE
Cosmos 1072 Rocket 4.5 07:49:13 10° S 07:55:34 89° W 08:01:57 10° N
YAOGAN 1 2.5 07:53:55 10° SSE 07:58:17 86° WSW 08:02:37 10° NNW
Cosmos 1777 Rocket 3.9 07:53:22 10° NNW 07:58:40 81° ENE 08:04:01 10° SSE
Meteor 1-19 Rocket 4.0 07:53:34 10° N 07:58:58 79° E 08:04:26 10° SSE
Cosmos 44 3.6 07:58:25 10° NW 08:02:52 62° SW 08:05:46 23° SSE
Meteor 2-9 Rocket 4.0 07:59:10 10° S 08:04:48 85° E 08:06:33 45° NNE
Cosmos 1408 Rocket 3.8 08:03:41 10° S 08:07:14 58° S 08:07:14 58° S
Cosmos 1943 4.0 08:05:52 10° S 08:10:09 35° SE 08:10:09 35° SE
Cosmos 1354 Rocket 4.0 08:11:57 10° NNW 08:17:17 82° WSW 08:22:42 10° SSE
Cosmos 2084 Rocket 4.2 08:18:22 10° SW 08:22:35 51° WNW 08:22:35 51° WNW
Cosmos 2227 Rocket 4.4 08:19:48 10° WNW 08:24:23 24° SW 08:29:00 10° S
Cosmos 2263 Rocket 2.9 08:19:18 10° NW 08:24:49 53° WSW 08:30:23 10° SSE
Meteor 1-27 Rocket 4.1 08:19:36 10° NNW 08:25:24 67° WSW 08:31:23 10° S
Cosmos 1536 4.5 08:23:19 10° SSW 08:26:49 31° W 08:27:19 30° WNW
Tsikada Rocket 3.9 08:33:24 78° NNE 08:33:53 86° E 08:40:25 10° S
Lacrosse 5 rocket 4.1 08:37:04 10° SW 08:39:11 13° SSW 08:39:58 13° S
Milstar 3 Cent rocket 4.5 09:12:02 10° WNW 09:19:33 42° N 09:19:33 42° N
Lacrosse 5 4.4 09:28:42 10° SW 09:29:55 17° SSW 09:29:55 17° SSW
ACS3 Solar Sail 4.1 09:51:17 10° S 09:52:17 15° S 09:52:17 15° S
USA 59 Rocket 3.8 11:55:51 21° SE 11:55:51 21° SE 11:58:39 10° SE
